Time,TemperatureF,DewpointF,PressureIn,WindDirection,WindDirectionDegrees,WindSpeedMPH,WindSpeedGustMPH,Humidity,HourlyPrecipIn,Conditions,Clouds,dailyrainin,SoftwareType,DateUTC
2013-09-26 00:01:00,54.0,50.2,29.97,ENE,74,0.0,0.0,87,0.00,,OVC044,0.00,VWS V14.01,2013-09-26 04:01:00,
2013-09-26 00:06:00,53.9,50.1,29.97,ENE,74,0.0,0.0,87,0.00,,OVC044,0.00,VWS V14.01,2013-09-26 04:06:00,
2013-09-26 00:11:00,53.9,50.1,29.97,ENE,74,0.0,0.0,87,0.00,,OVC044,0.00,VWS V14.01,2013-09-26 04:11:00,
2013-09-26 00:16:00,53.9,50.1,29.97,ENE,74,0.0,0.0,87,0.00,,OVC044,0.00,VWS V14.01,2013-09-26 04:16:00,
2013-09-26 00:21:00,53.9,50.1,29.97,ENE,74,0.0,0.0,87,0.00,,OVC044,0.00,VWS V14.01,2013-09-26 04:21:00,
2013-09-26 00:26:00,53.9,50.1,29.98,ENE,74,0.0,0.0,87,0.00,,OVC044,0.00,VWS V14.01,2013-09-26 04:26:00,
2013-09-26 00:31:00,53.9,50.1,29.98,ENE,74,0.0,0.0,87,0.00,,OVC044,0.00,VWS V14.01,2013-09-26 04:31:00,
2013-09-26 00:36:00,53.9,49.8,29.98,ENE,74,0.0,0.0,86,0.00,,OVC044,0.00,VWS V14.01,2013-09-26 04:36:00,
2013-09-26 00:41:00,54.0,49.9,29.98,ENE,72,0.0,0.0,86,0.00,,OVC044,0.00,VWS V14.01,2013-09-26 04:41:00,
2013-09-26 00:46:00,54.0,49.9,29.98,ENE,73,0.0,0.0,86,0.00,,OVC044,0.00,VWS V14.01,2013-09-26 04:46:00,
2013-09-26 00:51:00,54.1,50.0,29.98,ENE,73,0.0,0.0,86,0.00,,OVC044,0.00,VWS V14.01,2013-09-26 04:51:00,
2013-09-26 00:56:00,54.1,50.0,29.98,ENE,73,0.0,0.0,86,0.00,,OVC044,0.00,VWS V14.01,2013-09-26 04:56:00,
2013-09-26 01:01:00,54.1,50.0,29.98,ENE,57,0.0,0.0,86,0.00,,OVC042,0.00,VWS V14.01,2013-09-26 05:01:00,
2013-09-26 01:06:00,54.2,49.8,29.98,NNE,17,0.0,2.0,85,0.00,,OVC042,0.00,VWS V14.01,2013-09-26 05:06:00,
2013-09-26 01:11:00,54.3,49.6,29.98,NNE,21,0.0,2.0,84,0.00,,OVC042,0.00,VWS V14.01,2013-09-26 05:11:00,
2013-09-26 01:16:00,54.3,49.3,29.98,NNE,14,0.0,2.0,83,0.00,,OVC042,0.00,VWS V14.01,2013-09-26 05:16:00,
2013-09-26 01:21:00,54.4,49.0,29.98,NNE,15,0.0,2.0,82,0.00,,OVC042,0.00,VWS V14.01,2013-09-26 05:21:00,
2013-09-26 01:26:00,54.4,49.3,29.98,North,5,0.0,2.0,83,0.00,,OVC042,0.00,VWS V14.01,2013-09-26 05:26:00,
2013-09-26 01:31:00,54.5,49.1,29.98,North,360,0.0,2.0,82,0.00,,OVC042,0.00,VWS V14.01,2013-09-26 05:31:00,
2013-09-26 01:36:00,54.4,49.3,29.98,North,360,0.0,2.0,83,0.00,,OVC042,0.00,VWS V14.01,2013-09-26 05:36:00,
2013-09-26 01:41:00,54.4,49.3,29.98,North,360,0.0,2.0,83,0.00,,OVC042,0.00,VWS V14.01,2013-09-26 05:41:00,
2013-09-26 01:46:00,54.4,49.3,29.98,NNE,12,0.0,2.0,83,0.00,,OVC042,0.00,VWS V14.01,2013-09-26 05:46:00,
2013-09-26 01:51:00,54.4,49.3,29.98,NNE,12,0.0,2.0,83,0.00,,OVC042,0.00,VWS V14.01,2013-09-26 05:51:00,
2013-09-26 01:56:00,54.3,49.3,29.98,NNE,12,0.0,2.0,83,0.00,,OVC042,0.00,VWS V14.01,2013-09-26 05:56:00,
2013-09-26 02:01:00,54.3,49.3,29.98,NNE,12,0.0,0.0,83,0.00,,OVC046,0.00,VWS V14.01,2013-09-26 06:01:00,
2013-09-26 02:06:00,54.2,49.2,29.98,NNE,12,0.0,0.0,83,0.00,,OVC046,0.00,VWS V14.01,2013-09-26 06:06:00,
2013-09-26 02:11:00,54.2,49.2,29.98,NNE,12,0.0,0.0,83,0.00,,OVC046,0.00,VWS V14.01,2013-09-26 06:11:00,
2013-09-26 02:16:00,54.2,49.2,29.98,NNE,12,0.0,0.0,83,0.00,,OVC046,0.00,VWS V14.01,2013-09-26 06:16:00,
2013-09-26 02:21:00,54.1,49.1,29.98,NNE,12,0.0,0.0,83,0.00,,OVC046,0.00,VWS V14.01,2013-09-26 06:21:00,
2013-09-26 02:26:00,54.1,49.1,29.98,NNE,12,0.0,0.0,83,0.00,,OVC046,0.00,VWS V14.01,2013-09-26 06:26:00,
2013-09-26 02:31:00,54.1,49.4,29.98,NNE,12,0.0,0.0,84,0.00,,OVC046,0.00,VWS V14.01,2013-09-26 06:31:00,
2013-09-26 02:36:00,54.0,49.3,29.98,NNE,12,0.0,0.0,84,0.00,,OVC046,0.00,VWS V14.01,2013-09-26 06:36:00,
2013-09-26 02:41:00,54.0,49.3,29.98,NNE,12,0.0,0.0,84,0.00,,OVC046,0.00,VWS V14.01,2013-09-26 06:41:00,
2013-09-26 02:46:00,53.9,49.2,29.98,NNE,12,0.0,0.0,84,0.00,,OVC046,0.00,VWS V14.01,2013-09-26 06:46:00,
2013-09-26 02:51:00,53.9,49.2,29.98,NNE,12,0.0,0.0,84,0.00,,OVC046,0.00,VWS V14.01,2013-09-26 06:51:00,
2013-09-26 02:56:00,53.8,49.1,29.98,NNE,12,0.0,0.0,84,0.00,,OVC046,0.00,VWS V14.01,2013-09-26 06:56:00,
2013-09-26 03:01:00,53.7,49.0,29.98,NNE,12,0.0,0.0,84,0.00,,OVC046,0.00,VWS V14.01,2013-09-26 07:01:00,
2013-09-26 03:06:00,53.7,49.0,29.98,NNE,12,0.0,0.0,84,0.00,,OVC046,0.00,VWS V14.01,2013-09-26 07:06:00,
2013-09-26 03:11:00,53.7,49.0,29.98,NNE,12,0.0,0.0,84,0.00,,OVC046,0.00,VWS V14.01,2013-09-26 07:11:00,
2013-09-26 03:16:00,53.7,49.0,29.98,NNE,12,0.0,0.0,84,0.00,,OVC046,0.00,VWS V14.01,2013-09-26 07:16:00,
2013-09-26 03:21:00,53.7,49.0,29.99,NNE,12,0.0,0.0,84,0.00,,OVC046,0.00,VWS V14.01,2013-09-26 07:21:00,
2013-09-26 03:26:00,53.6,48.9,29.99,NNE,12,0.0,0.0,84,0.00,,OVC046,0.00,VWS V14.01,2013-09-26 07:26:00,
2013-09-26 03:31:00,53.6,48.9,29.99,North,11,0.0,0.0,84,0.00,,OVC046,0.00,VWS V14.01,2013-09-26 07:31:00,
2013-09-26 03:36:00,53.6,48.9,29.99,NNE,12,0.0,0.0,84,0.00,,OVC046,0.00,VWS V14.01,2013-09-26 07:36:00,
2013-09-26 03:41:00,53.5,48.8,29.99,NNE,12,0.0,0.0,84,0.00,,OVC046,0.00,VWS V14.01,2013-09-26 07:41:00,
2013-09-26 03:46:00,53.4,48.7,29.98,NNE,12,0.0,1.0,84,0.00,,OVC046,0.00,VWS V14.01,2013-09-26 07:46:00,
2013-09-26 03:51:00,53.4,48.7,29.99,NNE,12,0.0,1.0,84,0.00,,OVC046,0.00,VWS V14.01,2013-09-26 07:51:00,
2013-09-26 03:56:00,53.4,48.7,29.99,NNE,12,0.0,1.0,84,0.00,,OVC046,0.00,VWS V14.01,2013-09-26 07:56:00,
2013-09-26 04:01:00,53.3,48.6,29.99,NNE,14,0.0,1.0,84,0.00,,OVC046,0.00,VWS V14.01,2013-09-26 08:01:00,
2013-09-26 04:07:00,53.3,48.6,29.99,NNE,15,0.0,1.0,84,0.00,,OVC046,0.00,VWS V14.01,2013-09-26 08:07:00,
2013-09-26 04:12:00,53.2,48.5,29.99,NNE,14,0.0,1.0,84,0.00,,OVC046,0.00,VWS V14.01,2013-09-26 08:12:00,
2013-09-26 04:17:00,53.2,48.5,29.99,NNE,14,0.0,1.0,84,0.00,,OVC046,0.00,VWS V14.01,2013-09-26 08:17:00,
2013-09-26 04:22:00,53.1,48.4,29.99,NNE,14,0.0,1.0,84,0.00,,OVC046,0.00,VWS V14.01,2013-09-26 08:22:00,
2013-09-26 04:27:00,53.0,48.3,29.99,NNE,15,0.0,1.0,84,0.00,,OVC046,0.00,VWS V14.01,2013-09-26 08:27:00,
2013-09-26 04:32:00,52.9,48.2,29.99,NNE,14,0.0,1.0,84,0.00,,OVC046,0.00,VWS V14.01,2013-09-26 08:32:00,
2013-09-26 04:37:00,52.8,48.1,29.99,NNE,14,0.0,1.0,84,0.00,,OVC046,0.00,VWS V14.01,2013-09-26 08:37:00,
2013-09-26 04:42:00,52.7,48.3,29.99,NNE,14,0.0,1.0,85,0.00,,OVC046,0.00,VWS V14.01,2013-09-26 08:42:00,
2013-09-26 04:47:00,52.6,48.2,29.99,NNE,14,0.0,1.0,85,0.00,,OVC046,0.00,VWS V14.01,2013-09-26 08:47:00,
2013-09-26 04:52:00,52.5,48.1,29.99,NNE,14,0.0,1.0,85,0.00,,OVC046,0.00,VWS V14.01,2013-09-26 08:52:00,
2013-09-26 04:57:00,52.5,48.1,29.99,NNE,15,0.0,1.0,85,0.00,,OVC046,0.00,VWS V14.01,2013-09-26 08:57:00,
2013-09-26 05:02:00,52.5,48.1,29.99,NNE,15,0.0,0.0,85,0.00,,OVC044,0.00,VWS V14.01,2013-09-26 09:02:00,
2013-09-26 05:07:00,52.4,48.0,29.99,NNE,14,0.0,0.0,85,0.00,,OVC044,0.00,VWS V14.01,2013-09-26 09:07:00,
2013-09-26 05:12:00,52.4,48.0,29.99,NNE,14,0.0,0.0,85,0.00,,OVC044,0.00,VWS V14.01,2013-09-26 09:12:00,
2013-09-26 05:17:00,52.4,48.0,29.99,NNE,15,0.0,0.0,85,0.00,,OVC044,0.00,VWS V14.01,2013-09-26 09:17:00,
2013-09-26 05:22:00,52.4,48.0,29.99,NNE,30,0.0,1.0,85,0.00,,OVC044,0.00,VWS V14.01,2013-09-26 09:22:00,
2013-09-26 05:27:00,52.4,48.0,30.00,NNE,31,0.0,1.0,85,0.00,,OVC044,0.00,VWS V14.01,2013-09-26 09:27:00,
2013-09-26 05:32:00,52.4,48.0,29.99,NNE,30,0.0,1.0,85,0.00,,OVC044,0.00,VWS V14.01,2013-09-26 09:32:00,
2013-09-26 05:37:00,52.4,47.7,30.00,NNE,31,0.0,1.0,84,0.00,,OVC044,0.00,VWS V14.01,2013-09-26 09:37:00,
2013-09-26 05:42:00,52.4,47.7,30.00,NNE,30,0.0,1.0,84,0.00,,OVC044,0.00,VWS V14.01,2013-09-26 09:42:00,
2013-09-26 05:47:00,52.4,47.7,30.00,NNE,30,0.0,1.0,84,0.00,,OVC044,0.00,VWS V14.01,2013-09-26 09:47:00,
2013-09-26 05:52:00,52.4,47.7,30.00,NNE,30,0.0,1.0,84,0.00,,OVC044,0.00,VWS V14.01,2013-09-26 09:52:00,
2013-09-26 05:57:00,52.4,47.7,30.00,NNE,30,0.0,1.0,84,0.00,,OVC044,0.00,VWS V14.01,2013-09-26 09:57:00,
2013-09-26 06:02:00,52.3,47.6,30.00,NNE,30,0.0,0.0,84,0.00,,OVC044,0.00,VWS V14.01,2013-09-26 10:02:00,
2013-09-26 06:07:00,52.3,47.6,30.00,NNE,30,0.0,1.0,84,0.00,,OVC044,0.00,VWS V14.01,2013-09-26 10:07:00,
2013-09-26 06:12:00,52.2,47.5,30.00,NNE,30,0.0,1.0,84,0.00,,OVC044,0.00,VWS V14.01,2013-09-26 10:12:00,
2013-09-26 06:17:00,52.2,47.5,30.00,NNE,30,0.0,1.0,84,0.00,,OVC044,0.00,VWS V14.01,2013-09-26 10:17:00,
2013-09-26 06:22:00,52.1,47.4,30.00,NNE,30,0.0,1.0,84,0.00,,OVC044,0.00,VWS V14.01,2013-09-26 10:22:00,
2013-09-26 06:28:00,52.1,47.4,30.00,NNE,29,0.0,1.0,84,0.00,,OVC044,0.00,VWS V14.01,2013-09-26 10:28:00,
2013-09-26 06:33:00,52.1,47.4,30.00,North,5,0.0,1.0,84,0.00,,OVC044,0.00,VWS V14.01,2013-09-26 10:33:00,
2013-09-26 06:38:00,52.0,47.3,30.00,NNE,15,0.0,1.0,84,0.00,,OVC044,0.00,VWS V14.01,2013-09-26 10:38:00,
2013-09-26 06:43:00,52.0,47.3,30.00,NNE,15,0.0,1.0,84,0.00,,OVC044,0.00,VWS V14.01,2013-09-26 10:43:00,
2013-09-26 06:48:00,51.9,47.2,30.00,NNE,14,0.0,1.0,84,0.00,,OVC044,0.00,VWS V14.01,2013-09-26 10:48:00,
2013-09-26 06:53:00,51.9,47.2,30.01,NNE,15,0.0,1.0,84,0.00,,OVC044,0.00,VWS V14.01,2013-09-26 10:53:00,
2013-09-26 06:58:00,51.9,47.5,30.01,NNE,14,0.0,1.0,85,0.00,,OVC044,0.00,VWS V14.01,2013-09-26 10:58:00,
2013-09-26 07:03:00,52.0,47.6,30.01,NNE,15,0.0,0.0,85,0.00,,OVC042,0.00,VWS V14.01,2013-09-26 11:03:00,
2013-09-26 07:08:00,52.1,47.7,30.01,NNE,14,0.0,0.0,85,0.00,,OVC042,0.00,VWS V14.01,2013-09-26 11:08:00,
2013-09-26 07:13:00,52.2,47.5,30.01,NNE,14,0.0,0.0,84,0.00,,OVC042,0.00,VWS V14.01,2013-09-26 11:13:00,
2013-09-26 07:18:00,52.4,47.7,30.01,NNE,26,0.0,1.0,84,0.00,,OVC042,0.00,VWS V14.01,2013-09-26 11:18:00,
2013-09-26 07:23:00,52.5,47.8,30.01,NNE,26,0.0,1.0,84,0.00,,OVC042,0.00,VWS V14.01,2013-09-26 11:23:00,
2013-09-26 07:28:00,52.7,47.7,30.01,NNE,28,0.0,1.0,83,0.00,,OVC042,0.00,VWS V14.01,2013-09-26 11:28:00,
2013-09-26 07:33:00,52.9,47.9,30.01,NNE,26,0.0,1.0,83,0.00,,OVC042,0.00,VWS V14.01,2013-09-26 11:33:00,
2013-09-26 07:37:00,53.1,47.8,30.01,NNE,26,0.0,1.0,82,0.00,,OVC042,0.00,VWS V14.01,2013-09-26 11:37:00,
2013-09-26 07:43:00,53.2,47.5,30.01,NNE,32,0.0,1.0,81,0.00,,OVC042,0.00,VWS V14.01,2013-09-26 11:43:00,
2013-09-26 07:48:00,53.4,48.0,30.01,NNE,28,0.0,1.0,82,0.00,,OVC042,0.00,VWS V14.01,2013-09-26 11:48:00,
2013-09-26 07:53:00,53.5,47.8,30.02,NNE,20,0.0,1.0,81,0.00,,OVC042,0.00,VWS V14.01,2013-09-26 11:53:00,
2013-09-26 07:58:00,53.6,47.9,30.02,NNE,20,0.0,1.0,81,0.00,,OVC042,0.00,VWS V14.01,2013-09-26 11:58:00,
2013-09-26 08:03:00,53.8,47.8,30.02,NNE,17,0.0,1.0,80,0.00,,OVC042,0.00,VWS V14.01,2013-09-26 12:03:00,
2013-09-26 08:08:00,54.0,47.6,30.02,NNE,21,2.0,2.0,79,0.00,,OVC042,0.00,VWS V14.01,2013-09-26 12:08:00,
2013-09-26 08:13:00,54.3,47.6,30.02,NNE,20,0.0,3.0,78,0.00,,OVC042,0.00,VWS V14.01,2013-09-26 12:13:00,
2013-09-26 08:18:00,54.4,47.7,30.02,NNW,330,0.0,3.0,78,0.00,,OVC042,0.00,VWS V14.01,2013-09-26 12:18:00,
2013-09-26 08:23:00,54.7,48.0,30.02,NE,36,4.0,4.0,78,0.00,,OVC042,0.00,VWS V14.01,2013-09-26 12:23:00,
2013-09-26 08:28:00,54.9,47.8,30.02,NE,34,3.0,4.0,77,0.00,,OVC042,0.00,VWS V14.01,2013-09-26 12:28:00,
2013-09-26 08:33:00,55.0,47.9,30.02,NNE,12,2.0,4.0,77,0.00,,OVC042,0.00,VWS V14.01,2013-09-26 12:33:00,
2013-09-26 08:38:00,55.3,47.9,30.03,NNE,32,1.0,4.0,76,0.00,,OVC042,0.00,VWS V14.01,2013-09-26 12:38:00,
2013-09-26 08:43:00,55.5,47.7,30.03,ENE,69,0.0,4.0,75,0.00,,OVC042,0.00,VWS V14.01,2013-09-26 12:43:00,
2013-09-26 08:48:00,55.6,47.5,30.03,WNW,286,0.0,4.0,74,0.00,,OVC042,0.00,VWS V14.01,2013-09-26 12:48:00,
2013-09-26 08:53:00,55.8,47.3,30.03,NE,53,2.0,4.0,73,0.00,,OVC042,0.00,VWS V14.01,2013-09-26 12:53:00,
2013-09-26 08:58:00,55.8,46.9,30.03,NNE,26,5.0,5.0,72,0.00,,OVC042,0.00,VWS V14.01,2013-09-26 12:58:00,
2013-09-26 09:03:00,56.0,47.5,30.03,NNW,331,0.0,5.0,73,0.00,,OVC042,0.00,VWS V14.01,2013-09-26 13:03:00,
2013-09-26 09:08:00,56.1,47.6,30.03,NE,47,0.0,5.0,73,0.00,,OVC042,0.00,VWS V14.01,2013-09-26 13:08:00,
2013-09-26 09:13:00,56.3,47.4,30.03,ENE,57,0.0,5.0,72,0.00,,OVC042,0.00,VWS V14.01,2013-09-26 13:13:00,
2013-09-26 09:18:00,56.5,47.6,30.03,NE,52,1.0,5.0,72,0.00,,OVC042,0.00,VWS V14.01,2013-09-26 13:18:00,
2013-09-26 09:23:00,56.7,48.2,30.03,ENE,62,0.0,5.0,73,0.00,,OVC042,0.00,VWS V14.01,2013-09-26 13:23:00,
2013-09-26 09:28:00,57.2,47.5,30.03,NE,45,1.0,5.0,70,0.00,,OVC042,0.00,VWS V14.01,2013-09-26 13:28:00,
2013-09-26 09:33:00,57.3,47.2,30.03,East,98,1.0,5.0,69,0.00,,OVC042,0.00,VWS V14.01,2013-09-26 13:33:00,
2013-09-26 09:38:00,57.4,46.9,30.03,NE,49,1.0,5.0,68,0.00,,OVC042,0.00,VWS V14.01,2013-09-26 13:38:00,
2013-09-26 09:43:00,57.6,47.1,30.03,NW,306,0.0,5.0,68,0.00,,OVC042,0.00,VWS V14.01,2013-09-26 13:43:00,
2013-09-26 09:48:00,57.8,46.9,30.03,WNW,294,0.0,5.0,67,0.00,,OVC042,0.00,VWS V14.01,2013-09-26 13:48:00,
2013-09-26 09:53:00,58.0,46.3,30.03,NE,51,1.0,5.0,65,0.00,,OVC042,0.00,VWS V14.01,2013-09-26 13:53:00,
2013-09-26 09:58:00,58.1,46.4,30.03,NE,53,2.0,5.0,65,0.00,,OVC042,0.00,VWS V14.01,2013-09-26 13:58:00,
2013-09-26 10:03:00,58.2,46.5,30.04,NNE,12,1.0,3.0,65,0.00,,CLR,0.00,VWS V14.01,2013-09-26 14:03:00,
2013-09-26 10:08:00,58.4,46.7,30.04,NE,54,2.0,3.0,65,0.00,,CLR,0.00,VWS V14.01,2013-09-26 14:08:00,
2013-09-26 10:13:00,58.3,46.2,30.04,ENE,61,0.0,4.0,64,0.00,,CLR,0.00,VWS V14.01,2013-09-26 14:13:00,
2013-09-26 10:18:00,58.5,47.2,30.04,NE,51,2.0,4.0,66,0.00,,CLR,0.00,VWS V14.01,2013-09-26 14:18:00,
2013-09-26 10:23:00,58.8,46.7,30.04,ENE,75,0.0,5.0,64,0.00,,CLR,0.00,VWS V14.01,2013-09-26 14:23:00,
2013-09-26 10:28:00,58.9,47.2,30.04,ENE,64,0.0,5.0,65,0.00,,CLR,0.00,VWS V14.01,2013-09-26 14:28:00,
2013-09-26 10:33:00,59.4,47.2,30.04,NE,50,0.0,5.0,64,0.00,,CLR,0.00,VWS V14.01,2013-09-26 14:33:00,
2013-09-26 10:38:00,59.5,47.3,30.04,NNE,26,0.0,5.0,64,0.00,,CLR,0.00,VWS V14.01,2013-09-26 14:38:00,
2013-09-26 10:43:00,59.6,46.6,30.04,ENE,65,0.0,5.0,62,0.00,,CLR,0.00,VWS V14.01,2013-09-26 14:43:00,
2013-09-26 10:48:00,60.2,48.0,30.03,NNW,346,0.0,5.0,64,0.00,,CLR,0.00,VWS V14.01,2013-09-26 14:48:00,
2013-09-26 10:53:00,60.9,47.8,30.03,NE,46,2.0,5.0,62,0.00,,CLR,0.00,VWS V14.01,2013-09-26 14:53:00,
2013-09-26 10:58:00,61.3,48.2,30.03,NW,309,2.0,2.0,62,0.00,,CLR,0.00,VWS V14.01,2013-09-26 14:58:00,
2013-09-26 11:03:00,60.9,47.4,30.03,NNE,26,0.0,4.0,61,0.00,,FEW033,0.00,VWS V14.01,2013-09-26 15:03:00,
2013-09-26 11:08:00,60.8,47.7,30.03,NNE,32,4.0,4.0,62,0.00,,FEW033,0.00,VWS V14.01,2013-09-26 15:08:00,
2013-09-26 11:13:00,60.9,47.4,30.03,East,88,0.0,4.0,61,0.00,,FEW033,0.00,VWS V14.01,2013-09-26 15:13:00,
2013-09-26 11:18:00,61.0,47.9,30.03,WNW,295,0.0,4.0,62,0.00,,FEW033,0.00,VWS V14.01,2013-09-26 15:18:00,
2013-09-26 11:23:00,60.7,47.2,30.03,NNW,348,1.0,5.0,61,0.00,,FEW033,0.00,VWS V14.01,2013-09-26 15:23:00,
2013-09-26 11:28:00,60.0,47.4,30.03,North,350,0.0,5.0,63,0.00,,FEW033,0.00,VWS V14.01,2013-09-26 15:28:00,
2013-09-26 11:33:00,59.9,47.7,30.03,NNW,342,0.0,5.0,64,0.00,,FEW033,0.00,VWS V14.01,2013-09-26 15:33:00,
2013-09-26 11:38:00,60.2,48.0,30.03,NNW,336,0.0,5.0,64,0.00,,FEW033,0.00,VWS V14.01,2013-09-26 15:38:00,
2013-09-26 11:43:00,60.5,47.9,30.03,East,79,0.0,5.0,63,0.00,,FEW033,0.00,VWS V14.01,2013-09-26 15:43:00,
2013-09-26 11:48:00,61.3,48.2,30.03,WSW,249,0.0,5.0,62,0.00,,FEW033,0.00,VWS V14.01,2013-09-26 15:48:00,
2013-09-26 11:53:00,61.8,48.2,30.03,WNW,298,1.0,5.0,61,0.00,,FEW033,0.00,VWS V14.01,2013-09-26 15:53:00,
2013-09-26 11:58:00,61.7,47.7,30.03,NE,46,0.0,0.0,60,0.00,,FEW033,0.00,VWS V14.01,2013-09-26 15:58:00,
2013-09-26 12:03:00,61.8,48.2,30.03,NNW,330,0.0,2.0,61,0.00,,BKN039,0.00,VWS V14.01,2013-09-26 16:03:00,
2013-09-26 12:08:00,61.4,48.7,30.03,NNE,12,1.0,3.0,63,0.00,,BKN039,0.00,VWS V14.01,2013-09-26 16:08:00,
2013-09-26 12:13:00,61.3,47.8,30.03,NE,42,2.0,3.0,61,0.00,,BKN039,0.00,VWS V14.01,2013-09-26 16:13:00,
2013-09-26 12:18:00,61.4,47.8,30.03,WNW,288,0.0,5.0,61,0.00,,BKN039,0.00,VWS V14.01,2013-09-26 16:18:00,
2013-09-26 12:23:00,61.6,48.5,30.03,ENE,58,0.0,5.0,62,0.00,,BKN039,0.00,VWS V14.01,2013-09-26 16:23:00,
2013-09-26 12:28:00,62.0,48.8,30.03,NNE,26,2.0,5.0,62,0.00,,BKN039,0.00,VWS V14.01,2013-09-26 16:28:00,
2013-09-26 12:33:00,62.2,47.7,30.03,NNE,24,0.0,6.0,59,0.00,,BKN039,0.00,VWS V14.01,2013-09-26 16:33:00,
2013-09-26 12:38:00,62.2,47.7,30.03,West,277,0.0,6.0,59,0.00,,BKN039,0.00,VWS V14.01,2013-09-26 16:38:00,
2013-09-26 12:43:00,62.3,47.3,30.03,ENE,59,2.0,7.0,58,0.00,,BKN039,0.00,VWS V14.01,2013-09-26 16:43:00,
2013-09-26 12:48:00,62.2,47.7,30.03,NW,315,0.0,7.0,59,0.00,,BKN039,0.00,VWS V14.01,2013-09-26 16:48:00,
2013-09-26 12:53:00,62.1,47.6,30.03,NE,38,2.0,7.0,59,0.00,,BKN039,0.00,VWS V14.01,2013-09-26 16:53:00,
2013-09-26 12:58:00,62.6,48.5,30.03,NNW,340,0.0,1.0,60,0.00,,BKN039,0.00,VWS V14.01,2013-09-26 16:58:00,
2013-09-26 13:03:00,62.9,48.4,30.03,ENE,76,0.0,4.0,59,0.00,,BKN039,0.00,VWS V14.01,2013-09-26 17:03:00,
2013-09-26 13:08:00,63.3,48.3,30.03,NNE,20,1.0,4.0,58,0.00,,BKN039,0.00,VWS V14.01,2013-09-26 17:08:00,
2013-09-26 13:13:00,62.8,47.8,30.03,NE,38,0.0,4.0,58,0.00,,BKN039,0.00,VWS V14.01,2013-09-26 17:13:00,
2013-09-26 13:18:00,62.5,48.4,30.03,NE,46,2.0,4.0,60,0.00,,BKN039,0.00,VWS V14.01,2013-09-26 17:18:00,
2013-09-26 13:23:00,62.8,48.3,30.02,NE,52,0.0,4.0,59,0.00,,BKN039,0.00,VWS V14.01,2013-09-26 17:23:00,
2013-09-26 13:28:00,63.5,48.9,30.02,East,91,0.0,4.0,59,0.00,,BKN039,0.00,VWS V14.01,2013-09-26 17:28:00,
2013-09-26 13:33:00,63.8,48.3,30.02,NNE,24,1.0,4.0,57,0.00,,BKN039,0.00,VWS V14.01,2013-09-26 17:33:00,
2013-09-26 13:38:00,63.7,48.7,30.02,NNE,28,5.0,5.0,58,0.00,,BKN039,0.00,VWS V14.01,2013-09-26 17:38:00,
2013-09-26 13:43:00,63.5,48.9,30.02,NW,304,0.0,5.0,59,0.00,,BKN039,0.00,VWS V14.01,2013-09-26 17:43:00,
2013-09-26 13:48:00,63.9,48.8,30.02,WNW,288,1.0,5.0,58,0.00,,BKN039,0.00,VWS V14.01,2013-09-26 17:48:00,
2013-09-26 13:53:00,64.2,48.2,30.02,ENE,76,1.0,5.0,56,0.00,,BKN039,0.00,VWS V14.01,2013-09-26 17:53:00,
2013-09-26 13:58:00,63.8,48.3,30.02,ENE,69,0.0,1.0,57,0.00,,BKN039,0.00,VWS V14.01,2013-09-26 17:58:00,
2013-09-26 14:03:00,63.7,48.2,30.01,NNE,29,0.0,2.0,57,0.00,,BKN041,0.00,VWS V14.01,2013-09-26 18:03:00,
2013-09-26 14:09:00,64.0,48.5,30.01,WSW,249,0.0,2.0,57,0.00,,BKN041,0.00,VWS V14.01,2013-09-26 18:09:00,
2013-09-26 14:14:00,64.6,48.6,30.02,NE,46,1.0,2.0,56,0.00,,BKN041,0.00,VWS V14.01,2013-09-26 18:14:00,
2013-09-26 14:19:00,65.1,48.5,30.02,NNW,336,0.0,2.0,55,0.00,,BKN041,0.00,VWS V14.01,2013-09-26 18:19:00,
2013-09-26 14:24:00,65.4,48.8,30.02,NE,52,0.0,2.0,55,0.00,,BKN041,0.00,VWS V14.01,2013-09-26 18:24:00,
2013-09-26 14:29:00,65.0,49.4,30.01,NNE,24,0.0,2.0,57,0.00,,BKN041,0.00,VWS V14.01,2013-09-26 18:29:00,
2013-09-26 14:34:00,64.8,48.3,30.02,WNW,294,0.0,4.0,55,0.00,,BKN041,0.00,VWS V14.01,2013-09-26 18:34:00,
2013-09-26 14:39:00,65.1,49.0,30.01,SSW,210,0.0,4.0,56,0.00,,BKN041,0.00,VWS V14.01,2013-09-26 18:39:00,
2013-09-26 14:44:00,66.1,49.0,30.01,WNW,288,0.0,4.0,54,0.00,,BKN041,0.00,VWS V14.01,2013-09-26 18:44:00,
2013-09-26 14:49:00,66.4,49.3,30.01,ENE,61,1.0,4.0,54,0.00,,BKN041,0.00,VWS V14.01,2013-09-26 18:49:00,
2013-09-26 14:54:00,66.7,49.0,30.01,NNW,332,1.0,5.0,53,0.00,,BKN041,0.00,VWS V14.01,2013-09-26 18:54:00,
2013-09-26 14:59:00,66.5,49.8,30.01,NW,306,1.0,1.0,55,0.00,,BKN041,0.00,VWS V14.01,2013-09-26 18:59:00,
2013-09-26 15:04:00,67.0,49.8,30.01,East,86,0.0,2.0,54,0.00,,SCT043,0.00,VWS V14.01,2013-09-26 19:04:00,
2013-09-26 15:09:00,67.3,50.1,30.01,NNE,23,0.0,3.0,54,0.00,,SCT043,0.00,VWS V14.01,2013-09-26 19:09:00,
2013-09-26 15:14:00,67.1,49.9,30.01,ENE,63,0.0,3.0,54,0.00,,SCT043,0.00,VWS V14.01,2013-09-26 19:14:00,
2013-09-26 15:19:00,67.1,49.9,30.01,NNE,17,1.0,3.0,54,0.00,,SCT043,0.00,VWS V14.01,2013-09-26 19:19:00,
2013-09-26 15:24:00,66.8,49.1,30.01,NW,317,0.0,3.0,53,0.00,,SCT043,0.00,VWS V14.01,2013-09-26 19:24:00,
2013-09-26 15:29:00,67.2,49.0,30.01,ENE,72,0.0,3.0,52,0.00,,SCT043,0.00,VWS V14.01,2013-09-26 19:29:00,
2013-09-26 15:34:00,67.3,49.6,30.01,ENE,72,0.0,3.0,53,0.00,,SCT043,0.00,VWS V14.01,2013-09-26 19:34:00,
2013-09-26 15:39:00,67.5,49.3,30.01,SSE,147,0.0,3.0,52,0.00,,SCT043,0.00,VWS V14.01,2013-09-26 19:39:00,
2013-09-26 15:44:00,67.5,49.3,30.01,SW,224,0.0,3.0,52,0.00,,SCT043,0.00,VWS V14.01,2013-09-26 19:44:00,
2013-09-26 15:49:00,67.7,50.0,30.01,West,262,0.0,3.0,53,0.00,,SCT043,0.00,VWS V14.01,2013-09-26 19:49:00,
2013-09-26 15:54:00,68.4,49.1,30.01,NNW,338,0.0,3.0,50,0.00,,SCT043,0.00,VWS V14.01,2013-09-26 19:54:00,
2013-09-26 15:59:00,67.8,49.5,30.01,ENE,75,0.0,1.0,52,0.00,,SCT043,0.00,VWS V14.01,2013-09-26 19:59:00,
2013-09-26 16:04:00,67.2,49.0,30.01,ENE,70,1.0,2.0,52,0.00,,SCT043,0.00,VWS V14.01,2013-09-26 20:04:00,
2013-09-26 16:09:00,66.7,49.0,30.01,NE,44,0.0,2.0,53,0.00,,SCT043,0.00,VWS V14.01,2013-09-26 20:09:00,
2013-09-26 16:14:00,66.7,49.0,30.01,East,80,1.0,2.0,53,0.00,,SCT043,0.00,VWS V14.01,2013-09-26 20:14:00,
2013-09-26 16:19:00,66.8,49.1,30.01,NNW,343,0.0,2.0,53,0.00,,SCT043,0.00,VWS V14.01,2013-09-26 20:19:00,
2013-09-26 16:24:00,66.7,49.5,30.01,NNE,31,1.0,2.0,54,0.00,,SCT043,0.00,VWS V14.01,2013-09-26 20:24:00,
2013-09-26 16:29:00,66.6,49.5,30.01,WNW,288,0.0,2.0,54,0.00,,SCT043,0.00,VWS V14.01,2013-09-26 20:29:00,
2013-09-26 16:34:00,66.6,49.5,30.01,ENE,75,0.0,2.0,54,0.00,,SCT043,0.00,VWS V14.01,2013-09-26 20:34:00,
2013-09-26 16:39:00,66.2,49.1,30.01,NNE,33,0.0,2.0,54,0.00,,SCT043,0.00,VWS V14.01,2013-09-26 20:39:00,
2013-09-26 16:45:00,66.2,49.6,30.01,NNE,23,0.0,2.0,55,0.00,,SCT043,0.00,VWS V14.01,2013-09-26 20:45:00,
2013-09-26 16:50:00,66.3,49.2,30.01,West,279,0.0,2.0,54,0.00,,SCT043,0.00,VWS V14.01,2013-09-26 20:50:00,
2013-09-26 16:55:00,66.2,49.1,30.01,SW,217,0.0,2.0,54,0.00,,SCT043,0.00,VWS V14.01,2013-09-26 20:55:00,
2013-09-26 16:59:00,65.8,49.7,30.01,NNE,22,0.0,1.0,56,0.00,,SCT043,0.00,VWS V14.01,2013-09-26 20:59:00,
2013-09-26 17:04:00,65.5,49.4,30.01,NE,47,0.0,1.0,56,0.00,,FEW045,0.00,VWS V14.01,2013-09-26 21:04:00,
2013-09-26 17:09:00,65.4,49.3,30.01,NNW,330,0.0,1.0,56,0.00,,FEW045,0.00,VWS V14.01,2013-09-26 21:09:00,
2013-09-26 17:15:00,65.3,49.2,30.01,NNW,339,0.0,1.0,56,0.00,,FEW045,0.00,VWS V14.01,2013-09-26 21:15:00,
2013-09-26 17:20:00,65.2,49.6,30.01,NE,36,0.0,2.0,57,0.00,,FEW045,0.00,VWS V14.01,2013-09-26 21:20:00,
2013-09-26 17:25:00,65.0,49.9,30.01,NE,38,0.0,2.0,58,0.00,,FEW045,0.00,VWS V14.01,2013-09-26 21:25:00,
2013-09-26 17:30:00,64.9,50.2,30.02,NE,38,0.0,2.0,59,0.00,,FEW045,0.00,VWS V14.01,2013-09-26 21:30:00,
2013-09-26 17:35:00,64.8,50.6,30.02,NE,38,0.0,2.0,60,0.00,,FEW045,0.00,VWS V14.01,2013-09-26 21:35:00,
2013-09-26 17:40:00,64.6,51.3,30.02,SW,225,1.0,2.0,62,0.00,,FEW045,0.00,VWS V14.01,2013-09-26 21:40:00,
2013-09-26 17:45:00,64.1,51.7,30.02,SW,221,0.0,2.0,64,0.00,,FEW045,0.00,VWS V14.01,2013-09-26 21:45:00,
2013-09-26 17:50:00,63.7,51.7,30.02,SW,221,0.0,2.0,65,0.00,,FEW045,0.00,VWS V14.01,2013-09-26 21:50:00,
2013-09-26 17:55:00,63.2,51.7,30.03,SW,221,0.0,2.0,66,0.00,,FEW045,0.00,VWS V14.01,2013-09-26 21:55:00,
2013-09-26 18:00:00,62.7,51.6,30.03,SW,221,0.0,0.0,67,0.00,,FEW045,0.00,VWS V14.01,2013-09-26 22:00:00,
2013-09-26 18:05:00,62.3,51.6,30.03,SW,221,0.0,0.0,68,0.00,,CLR,0.00,VWS V14.01,2013-09-26 22:05:00,
2013-09-26 18:10:00,62.0,51.3,30.03,SW,221,0.0,1.0,68,0.00,,CLR,0.00,VWS V14.01,2013-09-26 22:10:00,
2013-09-26 18:15:00,61.7,51.4,30.03,SW,221,0.0,1.0,69,0.00,,CLR,0.00,VWS V14.01,2013-09-26 22:15:00,
2013-09-26 18:20:00,61.4,51.2,30.03,SW,221,0.0,1.0,69,0.00,,CLR,0.00,VWS V14.01,2013-09-26 22:20:00,
2013-09-26 18:25:00,61.1,51.2,30.04,SW,221,0.0,1.0,70,0.00,,CLR,0.00,VWS V14.01,2013-09-26 22:25:00,
2013-09-26 18:30:00,60.7,51.2,30.04,SW,221,0.0,1.0,71,0.00,,CLR,0.00,VWS V14.01,2013-09-26 22:30:00,
2013-09-26 18:35:00,60.2,51.2,30.04,SW,221,0.0,1.0,72,0.00,,CLR,0.00,VWS V14.01,2013-09-26 22:35:00,
2013-09-26 18:40:00,59.7,51.0,30.04,SW,221,0.0,1.0,73,0.00,,CLR,0.00,VWS V14.01,2013-09-26 22:40:00,
2013-09-26 18:45:00,59.3,51.0,30.05,SW,221,0.0,1.0,74,0.00,,CLR,0.00,VWS V14.01,2013-09-26 22:45:00,
2013-09-26 18:50:00,58.8,50.9,30.05,SW,221,0.0,1.0,75,0.00,,CLR,0.00,VWS V14.01,2013-09-26 22:50:00,
2013-09-26 18:55:00,58.4,50.9,30.05,SSE,167,0.0,1.0,76,0.00,,CLR,0.00,VWS V14.01,2013-09-26 22:55:00,
2013-09-26 19:00:00,57.8,50.3,30.05,SSE,167,0.0,0.0,76,0.00,,CLR,0.00,VWS V14.01,2013-09-26 23:00:00,
2013-09-26 19:05:00,57.4,50.3,30.05,SSE,167,0.0,0.0,77,0.00,,CLR,0.00,VWS V14.01,2013-09-26 23:05:00,
2013-09-26 19:10:00,57.1,50.0,30.05,SSE,167,0.0,0.0,77,0.00,,CLR,0.00,VWS V14.01,2013-09-26 23:10:00,
2013-09-26 19:15:00,56.7,49.9,30.05,SSE,167,0.0,0.0,78,0.00,,CLR,0.00,VWS V14.01,2013-09-26 23:15:00,
2013-09-26 19:20:00,56.4,50.0,30.06,SSE,167,0.0,0.0,79,0.00,,CLR,0.00,VWS V14.01,2013-09-26 23:20:00,
2013-09-26 19:25:00,56.0,49.6,30.06,SSE,167,0.0,0.0,79,0.00,,CLR,0.00,VWS V14.01,2013-09-26 23:25:00,
2013-09-26 19:30:00,55.6,49.5,30.06,SSE,167,0.0,0.0,80,0.00,,CLR,0.00,VWS V14.01,2013-09-26 23:30:00,
2013-09-26 19:36:00,55.2,49.2,30.06,SSE,166,0.0,0.0,80,0.00,,CLR,0.00,VWS V14.01,2013-09-26 23:36:00,
2013-09-26 19:41:00,54.9,49.2,30.06,SSE,167,0.0,0.0,81,0.00,,CLR,0.00,VWS V14.01,2013-09-26 23:41:00,
2013-09-26 19:46:00,54.7,49.3,30.06,SSE,166,0.0,0.0,82,0.00,,CLR,0.00,VWS V14.01,2013-09-26 23:46:00,
2013-09-26 19:51:00,54.5,49.1,30.06,SSE,167,0.0,0.0,82,0.00,,CLR,0.00,VWS V14.01,2013-09-26 23:51:00,
2013-09-26 19:56:00,54.3,49.3,30.06,SSE,167,0.0,0.0,83,0.00,,CLR,0.00,VWS V14.01,2013-09-26 23:56:00,
2013-09-26 20:01:00,54.1,49.1,30.07,SSE,166,0.0,0.0,83,0.00,,CLR,0.00,VWS V14.01,2013-09-27 00:01:00,
2013-09-26 20:06:00,53.9,49.2,30.07,SSE,166,0.0,0.0,84,0.00,,CLR,0.00,VWS V14.01,2013-09-27 00:06:00,
2013-09-26 20:11:00,53.7,49.0,30.07,SSE,166,0.0,0.0,84,0.00,,CLR,0.00,VWS V14.01,2013-09-27 00:11:00,
2013-09-26 20:16:00,53.7,49.3,30.07,SSE,166,0.0,0.0,85,0.00,,CLR,0.00,VWS V14.01,2013-09-27 00:16:00,
2013-09-26 20:21:00,53.8,49.4,30.07,SSE,165,0.0,0.0,85,0.00,,CLR,0.00,VWS V14.01,2013-09-27 00:21:00,
2013-09-26 20:26:00,53.9,49.5,30.07,SSE,166,0.0,0.0,85,0.00,,CLR,0.00,VWS V14.01,2013-09-27 00:26:00,
2013-09-26 20:31:00,54.0,49.6,30.07,SSE,167,0.0,0.0,85,0.00,,CLR,0.00,VWS V14.01,2013-09-27 00:31:00,
2013-09-26 20:36:00,54.3,49.9,30.07,SSE,167,0.0,0.0,85,0.00,,CLR,0.00,VWS V14.01,2013-09-27 00:36:00,
2013-09-26 20:41:00,54.4,50.0,30.07,SSE,166,0.0,0.0,85,0.00,,CLR,0.00,VWS V14.01,2013-09-27 00:41:00,
2013-09-26 20:46:00,54.6,50.2,30.07,SSE,165,0.0,0.0,85,0.00,,CLR,0.00,VWS V14.01,2013-09-27 00:46:00,
2013-09-26 20:51:00,54.7,50.0,30.08,SSE,167,0.0,0.0,84,0.00,,CLR,0.00,VWS V14.01,2013-09-27 00:51:00,
2013-09-26 20:56:00,54.8,50.1,30.08,SSE,165,0.0,0.0,84,0.00,,CLR,0.00,VWS V14.01,2013-09-27 00:56:00,
2013-09-26 21:01:00,54.8,50.1,30.08,SSE,166,0.0,0.0,84,0.00,,CLR,0.00,VWS V14.01,2013-09-27 01:01:00,
2013-09-26 21:06:00,54.7,50.3,30.08,SSE,167,0.0,0.0,85,0.00,,CLR,0.00,VWS V14.01,2013-09-27 01:06:00,
2013-09-26 21:11:00,54.7,50.3,30.08,SSE,166,0.0,0.0,85,0.00,,CLR,0.00,VWS V14.01,2013-09-27 01:11:00,
2013-09-26 21:16:00,54.7,50.3,30.08,SSE,166,0.0,0.0,85,0.00,,CLR,0.00,VWS V14.01,2013-09-27 01:16:00,
2013-09-26 21:21:00,54.5,50.1,30.08,SSE,166,0.0,0.0,85,0.00,,CLR,0.00,VWS V14.01,2013-09-27 01:21:00,
2013-09-26 21:26:00,54.4,50.0,30.09,SSE,167,0.0,0.0,85,0.00,,CLR,0.00,VWS V14.01,2013-09-27 01:26:00,
2013-09-26 21:31:00,54.3,49.9,30.09,SSE,167,0.0,0.0,85,0.00,,CLR,0.00,VWS V14.01,2013-09-27 01:31:00,
2013-09-26 21:36:00,54.1,49.7,30.09,SSE,167,0.0,0.0,85,0.00,,CLR,0.00,VWS V14.01,2013-09-27 01:36:00,
2013-09-26 21:41:00,53.9,49.8,30.09,SSE,167,0.0,0.0,86,0.00,,CLR,0.00,VWS V14.01,2013-09-27 01:41:00,
2013-09-26 21:46:00,53.6,49.5,30.09,SSE,167,0.0,0.0,86,0.00,,CLR,0.00,VWS V14.01,2013-09-27 01:46:00,
2013-09-26 21:51:00,53.3,49.2,30.10,SSE,167,0.0,0.0,86,0.00,,CLR,0.00,VWS V14.01,2013-09-27 01:51:00,
2013-09-26 21:56:00,53.0,49.2,30.10,SSE,167,0.0,0.0,87,0.00,,CLR,0.00,VWS V14.01,2013-09-27 01:56:00,
2013-09-26 22:01:00,52.7,49.0,30.10,SSE,167,0.0,0.0,87,0.00,,OVC050,0.00,VWS V14.01,2013-09-27 02:01:00,
2013-09-26 22:06:00,52.4,49.0,30.10,SSE,167,0.0,0.0,88,0.00,,OVC050,0.00,VWS V14.01,2013-09-27 02:06:00,
2013-09-26 22:11:00,52.3,48.9,30.10,SSE,167,0.0,0.0,88,0.00,,OVC050,0.00,VWS V14.01,2013-09-27 02:11:00,
2013-09-26 22:16:00,51.9,48.8,30.10,SSE,167,0.0,0.0,89,0.00,,OVC050,0.00,VWS V14.01,2013-09-27 02:16:00,
2013-09-26 22:21:00,51.7,48.6,30.10,SSE,167,0.0,0.0,89,0.00,,OVC050,0.00,VWS V14.01,2013-09-27 02:21:00,
2013-09-26 22:26:00,51.7,48.9,30.10,SSE,167,0.0,0.0,90,0.00,,OVC050,0.00,VWS V14.01,2013-09-27 02:26:00,
2013-09-26 22:31:00,51.8,49.0,30.10,SSE,167,0.0,0.0,90,0.00,,OVC050,0.00,VWS V14.01,2013-09-27 02:31:00,
2013-09-26 22:36:00,51.9,49.4,30.10,SSE,167,0.0,0.0,91,0.00,,OVC050,0.00,VWS V14.01,2013-09-27 02:36:00,
2013-09-26 22:41:00,52.1,49.6,30.10,SSE,167,0.0,0.0,91,0.00,,OVC050,0.00,VWS V14.01,2013-09-27 02:41:00,
2013-09-26 22:46:00,52.3,49.5,30.10,SSE,167,0.0,0.0,90,0.00,,OVC050,0.00,VWS V14.01,2013-09-27 02:46:00,
2013-09-26 22:51:00,52.4,49.6,30.10,SSE,167,0.0,0.0,90,0.00,,OVC050,0.00,VWS V14.01,2013-09-27 02:51:00,
2013-09-26 22:56:00,52.6,49.8,30.10,SSE,167,0.0,0.0,90,0.00,,OVC050,0.00,VWS V14.01,2013-09-27 02:56:00,
2013-09-26 23:01:00,52.7,49.8,30.11,SSE,167,0.0,0.0,90,0.00,,FEW055,0.00,VWS V14.01,2013-09-27 03:01:00,
2013-09-26 23:06:00,52.8,50.0,30.11,SSE,167,0.0,0.0,90,0.00,,FEW055,0.00,VWS V14.01,2013-09-27 03:06:00,
2013-09-26 23:12:00,53.0,49.8,30.11,SSE,167,0.0,0.0,89,0.00,,FEW055,0.00,VWS V14.01,2013-09-27 03:12:00,
2013-09-26 23:17:00,53.1,50.0,30.11,SSE,167,0.0,0.0,89,0.00,,FEW055,0.00,VWS V14.01,2013-09-27 03:17:00,
2013-09-26 23:22:00,53.3,50.2,30.11,SSE,167,0.0,0.0,89,0.00,,FEW055,0.00,VWS V14.01,2013-09-27 03:22:00,
2013-09-26 23:27:00,53.4,50.2,30.11,SSE,167,0.0,0.0,89,0.00,,FEW055,0.00,VWS V14.01,2013-09-27 03:27:00,
2013-09-26 23:32:00,53.5,50.3,30.11,SSE,167,0.0,0.0,89,0.00,,FEW055,0.00,VWS V14.01,2013-09-27 03:32:00,
2013-09-26 23:37:00,53.6,50.1,30.11,SSE,167,0.0,0.0,88,0.00,,FEW055,0.00,VWS V14.01,2013-09-27 03:37:00,
2013-09-26 23:42:00,53.7,50.2,30.11,SSE,167,0.0,0.0,88,0.00,,FEW055,0.00,VWS V14.01,2013-09-27 03:42:00,
2013-09-26 23:47:00,53.8,50.3,30.11,SSE,167,0.0,0.0,88,0.00,,FEW055,0.00,VWS V14.01,2013-09-27 03:47:00,
2013-09-26 23:52:00,53.9,50.4,30.11,SSE,167,0.0,0.0,88,0.00,,FEW055,0.00,VWS V14.01,2013-09-27 03:52:00,
2013-09-26 23:57:00,54.1,50.6,30.11,SSE,167,0.0,0.0,88,0.00,,FEW055,0.00,VWS V14.01,2013-09-27 03:57:00,